Time,TemperatureF,DewpointF,PressureIn,WindDirection,WindDirectionDegrees,WindSpeedMPH,WindSpeedGustMPH,Humidity,HourlyPrecipIn,Conditions,Clouds,dailyrainin,SoftwareType,DateUTC
2013-09-28 00:00:00,53.8,30.6,30.17,SE,126,0.0,0.0,41,0.00,,,-99.99,Weather View 32 v60,2013-09-28 04:00:00,
2013-09-28 00:05:00,53.6,30.4,30.17,SE,126,0.0,0.0,41,0.00,,,-99.99,Weather View 32 v60,2013-09-28 04:05:00,
2013-09-28 00:10:00,53.2,30.1,30.17,SE,126,0.0,0.0,41,0.00,,,-99.99,Weather View 32 v60,2013-09-28 04:10:00,
2013-09-28 00:15:00,53.1,30.5,30.17,SE,126,0.0,0.0,42,0.00,,,-99.99,Weather View 32 v60,2013-09-28 04:15:00,
2013-09-28 00:20:00,53.1,30.5,30.17,SE,126,0.0,0.0,42,0.00,,,-99.99,Weather View 32 v60,2013-09-28 04:20:00,
2013-09-28 00:25:00,52.9,30.4,30.17,SE,126,0.0,0.0,42,0.00,,,-99.99,Weather View 32 v60,2013-09-28 04:25:00,
2013-09-28 00:30:00,52.7,30.2,30.17,SE,126,0.0,0.0,42,0.00,,,-99.99,Weather View 32 v60,2013-09-28 04:30:00,
2013-09-28 00:35:00,52.5,30.0,30.17,SE,126,0.0,0.0,42,0.00,,,-99.99,Weather View 32 v60,2013-09-28 04:35:00,
2013-09-28 00:40:00,52.3,29.9,30.17,SE,126,0.0,0.0,42,0.00,,,-99.99,Weather View 32 v60,2013-09-28 04:40:00,
2013-09-28 00:45:00,52.2,29.7,30.17,SE,126,0.0,0.0,42,0.00,,,-99.99,Weather View 32 v60,2013-09-28 04:45:00,
2013-09-28 00:50:00,52.0,30.1,30.17,SE,126,0.0,0.0,43,0.00,,,-99.99,Weather View 32 v60,2013-09-28 04:50:00,
2013-09-28 00:55:00,51.8,29.4,30.17,SE,126,0.0,0.0,42,0.00,,,-99.99,Weather View 32 v60,2013-09-28 04:55:00,
2013-09-28 01:00:00,51.6,29.8,30.17,SE,126,0.0,0.0,43,0.00,,,-99.99,Weather View 32 v60,2013-09-28 05:00:00,
2013-09-28 01:05:00,51.4,29.6,30.17,SE,126,0.0,0.0,43,0.00,,,-99.99,Weather View 32 v60,2013-09-28 05:05:00,
2013-09-28 01:10:00,51.4,29.6,30.17,SE,126,0.0,0.0,43,0.00,,,-99.99,Weather View 32 v60,2013-09-28 05:10:00,
2013-09-28 01:20:00,51.3,30.0,30.17,SE,126,0.0,0.0,44,0.00,,,-99.99,Weather View 32 v60,2013-09-28 05:20:00,
2013-09-28 01:25:00,51.1,29.9,30.17,SE,126,0.0,0.0,44,0.00,,,-99.99,Weather View 32 v60,2013-09-28 05:25:00,
2013-09-28 01:30:00,50.9,29.7,30.17,SE,126,0.0,0.0,44,0.00,,,-99.99,Weather View 32 v60,2013-09-28 05:30:00,
2013-09-28 01:35:00,50.9,29.7,30.17,SE,126,0.0,0.0,44,0.00,,,-99.99,Weather View 32 v60,2013-09-28 05:35:00,
2013-09-28 01:40:00,50.7,29.6,30.17,SE,126,0.0,0.0,44,0.00,,,-99.99,Weather View 32 v60,2013-09-28 05:40:00,
2013-09-28 01:45:00,50.5,29.4,30.17,SE,126,0.0,0.0,44,0.00,,,-99.99,Weather View 32 v60,2013-09-28 05:45:00,
2013-09-28 01:50:00,50.5,29.4,30.17,SE,126,0.0,0.0,44,0.00,,,-99.99,Weather View 32 v60,2013-09-28 05:50:00,
2013-09-28 01:55:00,50.4,29.2,30.17,SE,126,0.0,0.0,44,0.00,,,-99.99,Weather View 32 v60,2013-09-28 05:55:00,
2013-09-28 02:00:00,50.2,28.5,30.17,SE,126,0.0,0.0,43,0.00,,,-99.99,Weather View 32 v60,2013-09-28 06:00:00,
2013-09-28 02:05:00,50.2,29.1,30.17,SE,126,0.0,0.0,44,0.00,,,-99.99,Weather View 32 v60,2013-09-28 06:05:00,
2013-09-28 02:10:00,50.0,28.9,30.17,SE,126,0.0,0.0,44,0.00,,,-99.99,Weather View 32 v60,2013-09-28 06:10:00,
2013-09-28 02:15:00,50.0,28.9,30.17,SE,126,0.0,0.0,44,0.00,,,-99.99,Weather View 32 v60,2013-09-28 06:15:00,
2013-09-28 02:20:00,49.8,28.7,30.17,SE,126,0.0,0.0,44,0.00,,,-99.99,Weather View 32 v60,2013-09-28 06:20:00,
2013-09-28 02:25:00,49.8,28.7,30.17,SE,126,0.0,0.0,44,0.00,,,-99.99,Weather View 32 v60,2013-09-28 06:25:00,
2013-09-28 02:30:00,49.6,28.6,30.17,SE,126,0.0,0.0,44,0.00,,,-99.99,Weather View 32 v60,2013-09-28 06:30:00,
2013-09-28 02:35:00,49.6,29.1,30.17,SE,126,0.0,0.0,45,0.00,,,-99.99,Weather View 32 v60,2013-09-28 06:35:00,
2013-09-28 02:40:00,49.6,29.1,30.17,SE,126,0.0,0.0,45,0.00,,,-99.99,Weather View 32 v60,2013-09-28 06:40:00,
2013-09-28 02:45:00,49.5,29.0,30.17,SE,126,0.0,0.0,45,0.00,,,-99.99,Weather View 32 v60,2013-09-28 06:45:00,
2013-09-28 02:50:00,49.5,29.0,30.17,SE,126,0.0,0.0,45,0.00,,,-99.99,Weather View 32 v60,2013-09-28 06:50:00,
2013-09-28 02:55:00,49.3,28.8,30.17,SE,126,0.0,0.0,45,0.00,,,-99.99,Weather View 32 v60,2013-09-28 06:55:00,
2013-09-28 03:00:00,49.3,28.8,30.17,SE,126,0.0,0.0,45,0.00,,,-99.99,Weather View 32 v60,2013-09-28 07:00:00,
2013-09-28 03:05:00,49.3,28.8,30.17,SE,126,0.0,0.0,45,0.00,,,-99.99,Weather View 32 v60,2013-09-28 07:05:00,
2013-09-28 03:10:00,49.1,28.6,30.17,SE,126,0.0,0.0,45,0.00,,,-99.99,Weather View 32 v60,2013-09-28 07:10:00,
2013-09-28 03:15:00,49.1,28.6,30.17,SE,126,0.0,0.0,45,0.00,,,-99.99,Weather View 32 v60,2013-09-28 07:15:00,
2013-09-28 03:20:00,48.9,28.5,30.17,SE,126,0.0,0.0,45,0.00,,,-99.99,Weather View 32 v60,2013-09-28 07:20:00,
2013-09-28 03:25:00,48.9,27.9,30.17,SE,126,0.0,0.0,44,0.00,,,-99.99,Weather View 32 v60,2013-09-28 07:25:00,
2013-09-28 03:30:00,48.7,27.8,30.17,SE,126,0.0,0.0,44,0.00,,,-99.99,Weather View 32 v60,2013-09-28 07:30:00,
2013-09-28 03:35:00,48.7,28.3,30.17,SE,126,0.0,0.0,45,0.00,,,-99.99,Weather View 32 v60,2013-09-28 07:35:00,
2013-09-28 03:45:00,48.6,28.7,30.17,SE,126,0.0,0.0,46,0.00,,,-99.99,Weather View 32 v60,2013-09-28 07:45:00,
2013-09-28 03:50:00,48.4,28.5,30.17,SE,126,0.0,0.0,46,0.00,,,-99.99,Weather View 32 v60,2013-09-28 07:50:00,
2013-09-28 03:55:00,48.4,28.0,30.17,SE,126,0.0,0.0,45,0.00,,,-99.99,Weather View 32 v60,2013-09-28 07:55:00,
2013-09-28 04:00:00,48.2,27.8,30.17,SE,126,0.0,0.0,45,0.00,,,-99.99,Weather View 32 v60,2013-09-28 08:00:00,
2013-09-28 04:05:00,48.0,28.2,30.17,SE,126,0.0,0.0,46,0.00,,,-99.99,Weather View 32 v60,2013-09-28 08:05:00,
2013-09-28 04:10:00,47.8,28.0,30.17,SE,126,0.0,0.0,46,0.00,,,-99.99,Weather View 32 v60,2013-09-28 08:10:00,
2013-09-28 04:15:00,47.8,27.5,30.17,SE,126,0.0,0.0,45,0.00,,,-99.99,Weather View 32 v60,2013-09-28 08:15:00,
2013-09-28 04:20:00,47.7,27.9,30.17,SE,126,0.0,0.0,46,0.00,,,-99.99,Weather View 32 v60,2013-09-28 08:20:00,
2013-09-28 04:25:00,47.5,27.7,30.17,SE,126,0.0,0.0,46,0.00,,,-99.99,Weather View 32 v60,2013-09-28 08:25:00,
2013-09-28 04:30:00,47.5,27.7,30.17,SE,126,0.0,0.0,46,0.00,,,-99.99,Weather View 32 v60,2013-09-28 08:30:00,
2013-09-28 04:35:00,47.3,27.0,30.17,SE,126,0.0,0.0,45,0.00,,,-99.99,Weather View 32 v60,2013-09-28 08:35:00,
2013-09-28 04:40:00,47.3,27.0,30.17,SE,126,0.0,0.0,45,0.00,,,-99.99,Weather View 32 v60,2013-09-28 08:40:00,
2013-09-28 04:45:00,47.1,26.8,30.17,SE,126,0.0,0.0,45,0.00,,,-99.99,Weather View 32 v60,2013-09-28 08:45:00,
2013-09-28 04:50:00,46.9,26.7,30.17,SE,126,0.0,0.0,45,0.00,,,-99.99,Weather View 32 v60,2013-09-28 08:50:00,
2013-09-28 04:55:00,46.9,26.7,30.17,SE,126,0.0,0.0,45,0.00,,,-99.99,Weather View 32 v60,2013-09-28 08:55:00,
2013-09-28 05:05:00,46.8,26.5,30.17,SE,126,0.0,0.0,45,0.00,,,-99.99,Weather View 32 v60,2013-09-28 09:05:00,
2013-09-28 05:10:00,46.6,26.9,30.17,SE,126,0.0,0.0,46,0.00,,,-99.99,Weather View 32 v60,2013-09-28 09:10:00,
2013-09-28 05:15:00,46.4,26.2,30.17,SE,126,0.0,0.0,45,0.00,,,-99.99,Weather View 32 v60,2013-09-28 09:15:00,
2013-09-28 05:20:00,46.4,26.7,30.17,SE,126,0.0,0.0,46,0.00,,,-99.99,Weather View 32 v60,2013-09-28 09:20:00,
2013-09-28 05:25:00,46.2,26.5,30.17,SE,126,0.0,0.0,46,0.00,,,-99.99,Weather View 32 v60,2013-09-28 09:25:00,
2013-09-28 05:30:00,46.2,26.5,30.17,SE,126,0.0,0.0,46,0.00,,,-99.99,Weather View 32 v60,2013-09-28 09:30:00,
2013-09-28 05:35:00,46.0,26.4,30.17,SE,126,0.0,0.0,46,0.00,,,-99.99,Weather View 32 v60,2013-09-28 09:35:00,
2013-09-28 05:40:00,45.9,26.2,30.17,SE,126,0.0,0.0,46,0.00,,,-99.99,Weather View 32 v60,2013-09-28 09:40:00,
2013-09-28 05:45:00,45.9,26.2,30.17,SE,126,0.0,0.0,46,0.00,,,-99.99,Weather View 32 v60,2013-09-28 09:45:00,
2013-09-28 05:50:00,45.7,26.1,30.17,SE,126,0.0,0.0,46,0.00,,,-99.99,Weather View 32 v60,2013-09-28 09:50:00,
2013-09-28 06:00:00,45.5,26.4,30.17,SE,126,0.0,0.0,47,0.00,,,-99.99,Weather View 32 v60,2013-09-28 10:00:00,
2013-09-28 06:05:00,45.3,26.2,30.17,SE,126,0.0,0.0,47,0.00,,,-99.99,Weather View 32 v60,2013-09-28 10:05:00,
2013-09-28 06:10:00,45.1,26.1,30.17,SE,126,0.0,0.0,47,0.00,,,-99.99,Weather View 32 v60,2013-09-28 10:10:00,
2013-09-28 06:15:00,45.1,26.1,30.17,SE,126,0.0,0.0,47,0.00,,,-99.99,Weather View 32 v60,2013-09-28 10:15:00,
2013-09-28 06:20:00,45.0,25.9,30.17,SE,126,0.0,0.0,47,0.00,,,-99.99,Weather View 32 v60,2013-09-28 10:20:00,
2013-09-28 06:25:00,44.8,25.7,30.17,SE,126,0.0,0.0,47,0.00,,,-99.99,Weather View 32 v60,2013-09-28 10:25:00,
2013-09-28 06:30:00,44.6,25.6,30.17,SE,126,0.0,0.0,47,0.00,,,-99.99,Weather View 32 v60,2013-09-28 10:30:00,
2013-09-28 06:35:00,44.6,25.6,30.17,SE,126,0.0,0.0,47,0.00,,,-99.99,Weather View 32 v60,2013-09-28 10:35:00,
2013-09-28 06:40:00,44.6,25.6,30.17,SE,126,0.0,0.0,47,0.00,,,-99.99,Weather View 32 v60,2013-09-28 10:40:00,
2013-09-28 06:50:00,44.4,25.9,30.17,SE,126,0.0,0.0,48,0.00,,,-99.99,Weather View 32 v60,2013-09-28 10:50:00,
2013-09-28 06:55:00,44.4,26.4,30.17,SE,126,0.0,0.0,49,0.00,,,-99.99,Weather View 32 v60,2013-09-28 10:55:00,
2013-09-28 07:00:00,44.6,26.6,30.17,SE,126,0.0,0.0,49,0.00,,,-99.99,Weather View 32 v60,2013-09-28 11:00:00,
2013-09-28 07:05:00,44.6,26.6,30.17,SE,126,0.0,0.0,49,0.00,,,-99.99,Weather View 32 v60,2013-09-28 11:05:00,
2013-09-28 07:10:00,44.8,27.2,30.17,SE,126,0.0,0.0,50,0.00,,,-99.99,Weather View 32 v60,2013-09-28 11:10:00,
2013-09-28 07:15:00,45.1,28.1,30.17,SE,126,0.0,0.0,51,0.00,,,-99.99,Weather View 32 v60,2013-09-28 11:15:00,
2013-09-28 07:20:00,45.3,28.2,30.17,SE,126,0.0,0.0,51,0.00,,,-99.99,Weather View 32 v60,2013-09-28 11:20:00,
2013-09-28 07:25:00,45.5,28.9,30.17,SE,126,0.0,0.0,52,0.00,,,-99.99,Weather View 32 v60,2013-09-28 11:25:00,
2013-09-28 07:30:00,45.7,29.0,30.17,SE,126,0.0,0.0,52,0.00,,,-99.99,Weather View 32 v60,2013-09-28 11:30:00,
2013-09-28 07:35:00,46.0,29.8,30.17,SE,126,0.0,0.0,53,0.00,,,-99.99,Weather View 32 v60,2013-09-28 11:35:00,
2013-09-28 07:40:00,46.2,30.0,30.17,SE,126,0.0,0.0,53,0.00,,,-99.99,Weather View 32 v60,2013-09-28 11:40:00,
2013-09-28 07:45:00,46.9,31.1,30.17,ESE,112,0.0,0.0,54,0.00,,,-99.99,Weather View 32 v60,2013-09-28 11:45:00,
2013-09-28 07:50:00,47.7,33.1,30.17,ESE,121,0.0,0.0,57,0.00,,,-99.99,Weather View 32 v60,2013-09-28 11:50:00,
2013-09-28 07:55:00,48.4,34.3,30.17,ESE,121,0.0,0.0,58,0.00,,,-99.99,Weather View 32 v60,2013-09-28 11:55:00,
2013-09-28 08:00:00,49.1,36.2,30.17,East,86,0.0,2.0,61,0.00,,,-99.99,Weather View 32 v60,2013-09-28 12:00:00,
2013-09-28 08:05:00,50.0,37.9,30.17,ESE,109,0.0,2.0,63,0.00,,,-99.99,Weather View 32 v60,2013-09-28 12:05:00,
2013-09-28 08:10:00,50.7,39.8,30.17,SE,132,0.0,2.0,66,0.00,,,-99.99,Weather View 32 v60,2013-09-28 12:10:00,
2013-09-28 08:15:00,51.6,41.4,30.17,SE,127,2.0,4.0,68,0.00,,,-99.99,Weather View 32 v60,2013-09-28 12:15:00,
2013-09-28 08:20:00,52.2,42.7,30.17,ESE,119,2.0,4.0,70,0.00,,,-99.99,Weather View 32 v60,2013-09-28 12:20:00,
2013-09-28 08:25:00,52.9,44.1,30.17,SE,125,0.0,4.0,72,0.00,,,-99.99,Weather View 32 v60,2013-09-28 12:25:00,
2013-09-28 08:30:00,53.2,45.2,30.17,ESE,116,0.0,4.0,74,0.00,,,-99.99,Weather View 32 v60,2013-09-28 12:30:00,
2013-09-28 08:35:00,53.6,45.5,30.17,ESE,119,0.0,4.0,74,0.00,,,-99.99,Weather View 32 v60,2013-09-28 12:35:00,
2013-09-28 08:40:00,54.0,46.2,30.17,SE,132,0.0,4.0,75,0.00,,,-99.99,Weather View 32 v60,2013-09-28 12:40:00,
2013-09-28 08:45:00,54.1,46.4,30.17,ESE,113,0.0,4.0,75,0.00,,,-99.99,Weather View 32 v60,2013-09-28 12:45:00,
2013-09-28 08:50:00,54.3,46.9,30.17,ESE,113,0.0,4.0,76,0.00,,,-99.99,Weather View 32 v60,2013-09-28 12:50:00,
2013-09-28 08:55:00,54.5,47.4,30.17,SE,133,0.0,4.0,77,0.00,,,-99.99,Weather View 32 v60,2013-09-28 12:55:00,
2013-09-28 09:00:00,54.7,47.6,30.17,SE,138,0.0,4.0,77,0.00,,,-99.99,Weather View 32 v60,2013-09-28 13:00:00,
2013-09-28 09:05:00,54.9,48.1,30.17,ESE,107,0.0,4.0,78,0.00,,,-99.99,Weather View 32 v60,2013-09-28 13:05:00,
2013-09-28 09:15:00,55.4,49.0,30.17,South,182,3.0,4.0,79,0.00,,,-99.99,Weather View 32 v60,2013-09-28 13:15:00,
2013-09-28 09:20:00,55.6,49.5,30.17,ESE,123,0.0,4.0,80,0.00,,,-99.99,Weather View 32 v60,2013-09-28 13:20:00,
2013-09-28 09:25:00,55.8,49.7,30.17,SE,141,2.0,4.0,80,0.00,,,-99.99,Weather View 32 v60,2013-09-28 13:25:00,
2013-09-28 09:30:00,55.8,50.0,30.17,SE,124,0.0,4.0,81,0.00,,,-99.99,Weather View 32 v60,2013-09-28 13:30:00,
2013-09-28 09:35:00,55.9,50.2,30.17,SSE,157,4.0,4.0,81,0.00,,,-99.99,Weather View 32 v60,2013-09-28 13:35:00,
2013-09-28 09:40:00,56.1,50.7,30.17,SSE,153,0.0,4.0,82,0.00,,,-99.99,Weather View 32 v60,2013-09-28 13:40:00,
2013-09-28 09:45:00,56.1,50.7,30.17,ESE,115,0.0,4.0,82,0.00,,,-99.99,Weather View 32 v60,2013-09-28 13:45:00,
2013-09-28 09:50:00,56.3,50.9,30.17,SSE,164,0.0,4.0,82,0.00,,,-99.99,Weather View 32 v60,2013-09-28 13:50:00,
2013-09-28 09:55:00,56.5,51.0,30.17,SSE,147,3.0,4.0,82,0.00,,,-99.99,Weather View 32 v60,2013-09-28 13:55:00,
2013-09-28 10:00:00,56.5,51.4,30.17,SE,141,0.0,4.0,83,0.00,,,-99.99,Weather View 32 v60,2013-09-28 14:00:00,
2013-09-28 10:05:00,56.7,51.5,30.17,SE,133,0.0,4.0,83,0.00,,,-99.99,Weather View 32 v60,2013-09-28 14:05:00,
2013-09-28 10:10:00,56.8,51.7,30.17,SSE,150,2.0,4.0,83,0.00,,,-99.99,Weather View 32 v60,2013-09-28 14:10:00,
2013-09-28 10:15:00,57.0,51.9,30.17,ESE,104,3.0,4.0,83,0.00,,,-99.99,Weather View 32 v60,2013-09-28 14:15:00,
2013-09-28 10:20:00,57.2,52.1,30.17,SE,143,2.0,4.0,83,0.00,,,-99.99,Weather View 32 v60,2013-09-28 14:20:00,
2013-09-28 10:25:00,57.4,52.2,30.17,SSE,152,2.0,4.0,83,0.00,,,-99.99,Weather View 32 v60,2013-09-28 14:25:00,
2013-09-28 10:35:00,57.7,52.6,30.17,East,96,0.0,4.0,83,0.00,,,-99.99,Weather View 32 v60,2013-09-28 14:35:00,
2013-09-28 10:40:00,57.9,52.8,30.17,ESE,122,3.0,4.0,83,0.00,,,-99.99,Weather View 32 v60,2013-09-28 14:40:00,
2013-09-28 10:45:00,58.3,53.1,30.17,SE,128,2.0,4.0,83,0.00,,,-99.99,Weather View 32 v60,2013-09-28 14:45:00,
2013-09-28 10:50:00,58.5,53.0,30.17,SSE,158,3.0,4.0,82,0.00,,,-99.99,Weather View 32 v60,2013-09-28 14:50:00,
2013-09-28 11:00:00,59.2,53.3,30.17,ESE,107,3.0,4.0,81,0.00,,,-99.99,Weather View 32 v60,2013-09-28 15:00:00,
2013-09-28 11:05:00,59.4,53.5,30.17,SSE,161,3.0,5.0,81,0.00,,,-99.99,Weather View 32 v60,2013-09-28 15:05:00,
2013-09-28 11:10:00,59.9,53.7,30.17,East,100,4.0,5.0,80,0.00,,,-99.99,Weather View 32 v60,2013-09-28 15:10:00,
2013-09-28 11:15:00,60.3,53.7,30.17,SE,129,3.0,5.0,79,0.00,,,-99.99,Weather View 32 v60,2013-09-28 15:15:00,
2013-09-28 11:20:00,60.6,53.3,30.17,ESE,123,3.0,5.0,77,0.00,,,-99.99,Weather View 32 v60,2013-09-28 15:20:00,
2013-09-28 11:25:00,61.0,53.3,30.14,SSE,154,3.0,5.0,76,0.00,,,-99.99,Weather View 32 v60,2013-09-28 15:25:00,
2013-09-28 11:30:00,61.5,53.1,30.14,East,97,2.0,5.0,74,0.00,,,-99.99,Weather View 32 v60,2013-09-28 15:30:00,
2013-09-28 11:35:00,62.2,52.3,30.14,SE,128,3.0,5.0,70,0.00,,,-99.99,Weather View 32 v60,2013-09-28 15:35:00,
2013-09-28 11:40:00,62.6,51.1,30.14,ESE,107,4.0,5.0,66,0.00,,,-99.99,Weather View 32 v60,2013-09-28 15:40:00,
2013-09-28 11:45:00,63.0,49.7,30.14,NE,48,0.0,5.0,62,0.00,,,-99.99,Weather View 32 v60,2013-09-28 15:45:00,
2013-09-28 11:50:00,63.5,48.9,30.14,ESE,112,5.0,5.0,59,0.00,,,-99.99,Weather View 32 v60,2013-09-28 15:50:00,
2013-09-28 11:55:00,63.9,47.8,30.14,SSE,154,2.0,5.0,56,0.00,,,-99.99,Weather View 32 v60,2013-09-28 15:55:00,
2013-09-28 12:00:00,64.6,47.0,30.14,SSE,165,3.0,5.0,53,0.00,,,-99.99,Weather View 32 v60,2013-09-28 16:00:00,
2013-09-28 12:05:00,65.1,46.5,30.14,East,85,2.0,5.0,51,0.00,,,-99.99,Weather View 32 v60,2013-09-28 16:05:00,
2013-09-28 12:10:00,65.5,45.8,30.14,SE,138,3.0,5.0,49,0.00,,,-99.99,Weather View 32 v60,2013-09-28 16:10:00,
2013-09-28 12:15:00,66.0,45.2,30.14,SE,140,3.0,5.0,47,0.00,,,-99.99,Weather View 32 v60,2013-09-28 16:15:00,
2013-09-28 12:20:00,66.6,44.5,30.14,SE,128,4.0,5.0,45,0.00,,,-99.99,Weather View 32 v60,2013-09-28 16:20:00,
2013-09-28 12:25:00,67.1,45.0,30.11,SSE,167,3.0,5.0,45,0.00,,,-99.99,Weather View 32 v60,2013-09-28 16:25:00,
2013-09-28 12:30:00,67.5,44.1,30.11,ESE,115,4.0,5.0,43,0.00,,,-99.99,Weather View 32 v60,2013-09-28 16:30:00,
2013-09-28 12:35:00,68.0,43.4,30.11,ESE,103,4.0,5.0,41,0.00,,,-99.99,Weather View 32 v60,2013-09-28 16:35:00,
2013-09-28 12:40:00,68.5,42.5,30.11,ESE,113,4.0,5.0,39,0.00,,,-99.99,Weather View 32 v60,2013-09-28 16:40:00,
2013-09-28 12:50:00,69.4,41.3,30.11,SE,128,3.0,6.0,36,0.00,,,-99.99,Weather View 32 v60,2013-09-28 16:50:00,
2013-09-28 12:55:00,70.0,41.0,30.11,SSE,152,0.0,6.0,35,0.00,,,-99.99,Weather View 32 v60,2013-09-28 16:55:00,
2013-09-28 13:00:00,70.3,40.6,30.11,SSE,153,4.0,6.0,34,0.00,,,-99.99,Weather View 32 v60,2013-09-28 17:00:00,
2013-09-28 13:05:00,70.9,40.3,30.11,SSE,162,3.0,6.0,33,0.00,,,-99.99,Weather View 32 v60,2013-09-28 17:05:00,
2013-09-28 13:10:00,71.2,40.6,30.11,SE,137,4.0,6.0,33,0.00,,,-99.99,Weather View 32 v60,2013-09-28 17:10:00,
2013-09-28 13:15:00,71.4,39.9,30.11,SE,129,3.0,6.0,32,0.00,,,-99.99,Weather View 32 v60,2013-09-28 17:15:00,
2013-09-28 13:20:00,71.8,39.4,30.11,ESE,108,4.0,6.0,31,0.00,,,-99.99,Weather View 32 v60,2013-09-28 17:20:00,
2013-09-28 13:25:00,72.1,39.8,30.08,SSE,166,4.0,6.0,31,0.00,,,-99.99,Weather View 32 v60,2013-09-28 17:25:00,
2013-09-28 13:30:00,72.5,39.2,30.08,SSE,147,5.0,7.0,30,0.00,,,-99.99,Weather View 32 v60,2013-09-28 17:30:00,
2013-09-28 13:35:00,72.9,38.7,30.08,ENE,72,3.0,7.0,29,0.00,,,-99.99,Weather View 32 v60,2013-09-28 17:35:00,
2013-09-28 13:40:00,73.0,38.8,30.08,SE,124,2.0,7.0,29,0.00,,,-99.99,Weather View 32 v60,2013-09-28 17:40:00,
2013-09-28 13:45:00,73.2,37.1,30.08,SSW,197,2.0,7.0,27,0.00,,,-99.99,Weather View 32 v60,2013-09-28 17:45:00,
2013-09-28 13:50:00,73.4,36.3,30.08,SE,138,4.0,7.0,26,0.00,,,-99.99,Weather View 32 v60,2013-09-28 17:50:00,
2013-09-28 13:55:00,73.8,36.6,30.08,ESE,108,4.0,7.0,26,0.00,,,-99.99,Weather View 32 v60,2013-09-28 17:55:00,
2013-09-28 14:00:00,73.8,35.7,30.08,SE,146,3.0,7.0,25,0.00,,,-99.99,Weather View 32 v60,2013-09-28 18:00:00,
2013-09-28 14:05:00,73.9,35.8,30.08,SSE,158,4.0,7.0,25,0.00,,,-99.99,Weather View 32 v60,2013-09-28 18:05:00,
2013-09-28 14:10:00,73.9,35.8,30.05,SSE,150,3.0,7.0,25,0.00,,,-99.99,Weather View 32 v60,2013-09-28 18:10:00,
2013-09-28 14:15:00,74.3,35.1,30.05,SE,141,4.0,7.0,24,0.00,,,-99.99,Weather View 32 v60,2013-09-28 18:15:00,
2013-09-28 14:20:00,74.5,35.2,30.05,SE,130,5.0,7.0,24,0.00,,,-99.99,Weather View 32 v60,2013-09-28 18:20:00,
2013-09-28 14:25:00,74.8,34.5,30.05,SE,146,3.0,7.0,23,0.00,,,-99.99,Weather View 32 v60,2013-09-28 18:25:00,
2013-09-28 14:30:00,74.8,34.5,30.05,SE,135,6.0,6.0,23,0.00,,,-99.99,Weather View 32 v60,2013-09-28 18:30:00,
2013-09-28 14:35:00,75.0,34.6,30.05,South,177,4.0,6.0,23,0.00,,,-99.99,Weather View 32 v60,2013-09-28 18:35:00,
2013-09-28 14:40:00,75.2,33.6,30.05,ESE,120,5.0,6.0,22,0.00,,,-99.99,Weather View 32 v60,2013-09-28 18:40:00,
2013-09-28 14:45:00,75.4,33.8,30.05,SSE,155,3.0,6.0,22,0.00,,,-99.99,Weather View 32 v60,2013-09-28 18:45:00,
2013-09-28 14:50:00,75.6,33.9,30.05,SSE,165,4.0,6.0,22,0.00,,,-99.99,Weather View 32 v60,2013-09-28 18:50:00,
2013-09-28 14:55:00,75.9,34.2,30.02,ESE,123,2.0,6.0,22,0.00,,,-99.99,Weather View 32 v60,2013-09-28 18:55:00,
2013-09-28 15:00:00,75.9,34.2,30.02,SE,146,6.0,6.0,22,0.00,,,-99.99,Weather View 32 v60,2013-09-28 19:00:00,
2013-09-28 15:05:00,76.1,34.4,30.02,SE,139,4.0,8.0,22,0.00,,,-99.99,Weather View 32 v60,2013-09-28 19:05:00,
2013-09-28 15:10:00,76.3,34.5,30.02,SE,131,3.0,8.0,22,0.00,,,-99.99,Weather View 32 v60,2013-09-28 19:10:00,
2013-09-28 15:15:00,76.5,34.7,30.02,SE,131,4.0,8.0,22,0.00,,,-99.99,Weather View 32 v60,2013-09-28 19:15:00,
2013-09-28 15:20:00,76.6,34.8,30.02,SSE,151,3.0,8.0,22,0.00,,,-99.99,Weather View 32 v60,2013-09-28 19:20:00,
2013-09-28 15:25:00,76.6,34.8,30.02,SSE,150,4.0,8.0,22,0.00,,,-99.99,Weather View 32 v60,2013-09-28 19:25:00,
2013-09-28 15:30:00,76.6,34.8,30.02,SE,145,3.0,8.0,22,0.00,,,-99.99,Weather View 32 v60,2013-09-28 19:30:00,
2013-09-28 15:35:00,76.6,33.7,30.02,SE,136,4.0,8.0,21,0.00,,,-99.99,Weather View 32 v60,2013-09-28 19:35:00,
2013-09-28 15:40:00,76.8,33.8,30.02,SSE,151,3.0,8.0,21,0.00,,,-99.99,Weather View 32 v60,2013-09-28 19:40:00,
2013-09-28 15:45:00,76.8,33.8,30.02,ESE,120,3.0,8.0,21,0.00,,,-99.99,Weather View 32 v60,2013-09-28 19:45:00,
2013-09-28 15:50:00,77.0,34.0,30.02,ENE,70,4.0,8.0,21,0.00,,,-99.99,Weather View 32 v60,2013-09-28 19:50:00,
2013-09-28 15:55:00,77.0,34.0,30.02,SE,126,6.0,8.0,21,0.00,,,-99.99,Weather View 32 v60,2013-09-28 19:55:00,
2013-09-28 16:00:00,77.0,34.0,30.02,SSE,165,2.0,8.0,21,0.00,,,-99.99,Weather View 32 v60,2013-09-28 20:00:00,
2013-09-28 16:05:00,77.0,34.0,30.02,SSE,157,3.0,7.0,21,0.00,,,-99.99,Weather View 32 v60,2013-09-28 20:05:00,
2013-09-28 16:10:00,77.0,34.0,29.99,ESE,106,3.0,7.0,21,0.00,,,-99.99,Weather View 32 v60,2013-09-28 20:10:00,
2013-09-28 16:15:00,77.0,34.0,29.99,SW,220,3.0,7.0,21,0.00,,,-99.99,Weather View 32 v60,2013-09-28 20:15:00,
2013-09-28 16:20:00,77.0,32.8,29.99,SE,138,4.0,7.0,20,0.00,,,-99.99,Weather View 32 v60,2013-09-28 20:20:00,
2013-09-28 16:25:00,77.0,32.8,29.99,South,175,3.0,7.0,20,0.00,,,-99.99,Weather View 32 v60,2013-09-28 20:25:00,
2013-09-28 16:30:00,77.2,32.9,29.99,SE,125,2.0,7.0,20,0.00,,,-99.99,Weather View 32 v60,2013-09-28 20:30:00,
2013-09-28 16:35:00,77.2,32.9,29.99,ESE,118,3.0,7.0,20,0.00,,,-99.99,Weather View 32 v60,2013-09-28 20:35:00,
2013-09-28 16:40:00,77.2,32.9,29.99,SSW,198,0.0,7.0,20,0.00,,,-99.99,Weather View 32 v60,2013-09-28 20:40:00,
2013-09-28 16:45:00,77.2,32.9,29.99,SE,127,5.0,7.0,20,0.00,,,-99.99,Weather View 32 v60,2013-09-28 20:45:00,
2013-09-28 16:50:00,77.2,32.9,29.99,SSE,147,3.0,7.0,20,0.00,,,-99.99,Weather View 32 v60,2013-09-28 20:50:00,
2013-09-28 16:55:00,77.2,32.9,29.99,SSE,162,6.0,7.0,20,0.00,,,-99.99,Weather View 32 v60,2013-09-28 20:55:00,
2013-09-28 17:00:00,77.0,32.8,29.99,SSE,157,4.0,6.0,20,0.00,,,-99.99,Weather View 32 v60,2013-09-28 21:00:00,
2013-09-28 17:05:00,77.0,32.8,29.99,SSE,151,3.0,6.0,20,0.00,,,-99.99,Weather View 32 v60,2013-09-28 21:05:00,
2013-09-28 17:10:00,76.8,33.8,29.99,SSE,160,4.0,6.0,21,0.00,,,-99.99,Weather View 32 v60,2013-09-28 21:10:00,
2013-09-28 17:15:00,76.6,32.5,29.99,SE,127,3.0,6.0,20,0.00,,,-99.99,Weather View 32 v60,2013-09-28 21:15:00,
2013-09-28 17:20:00,76.5,32.3,29.99,SSE,166,3.0,6.0,20,0.00,,,-99.99,Weather View 32 v60,2013-09-28 21:20:00,
2013-09-28 17:30:00,76.1,33.2,29.99,SSE,167,3.0,6.0,21,0.00,,,-99.99,Weather View 32 v60,2013-09-28 21:30:00,
2013-09-28 17:35:00,75.9,33.1,29.99,South,186,3.0,6.0,21,0.00,,,-99.99,Weather View 32 v60,2013-09-28 21:35:00,
2013-09-28 17:40:00,75.7,32.9,29.99,ESE,123,3.0,6.0,21,0.00,,,-99.99,Weather View 32 v60,2013-09-28 21:40:00,
2013-09-28 17:45:00,75.4,32.6,29.99,SSE,154,3.0,6.0,21,0.00,,,-99.99,Weather View 32 v60,2013-09-28 21:45:00,
2013-09-28 17:50:00,75.2,32.5,29.99,SE,132,0.0,6.0,21,0.00,,,-99.99,Weather View 32 v60,2013-09-28 21:50:00,
2013-09-28 17:55:00,75.0,32.3,29.99,SE,135,3.0,6.0,21,0.00,,,-99.99,Weather View 32 v60,2013-09-28 21:55:00,
2013-09-28 18:00:00,74.7,32.0,29.99,SE,143,2.0,6.0,21,0.00,,,-99.99,Weather View 32 v60,2013-09-28 22:00:00,
2013-09-28 18:05:00,74.5,31.9,29.99,SE,140,3.0,6.0,21,0.00,,,-99.99,Weather View 32 v60,2013-09-28 22:05:00,
2013-09-28 18:10:00,74.1,32.7,29.99,SSE,150,2.0,6.0,22,0.00,,,-99.99,Weather View 32 v60,2013-09-28 22:10:00,
2013-09-28 18:15:00,73.8,32.4,29.99,SSE,158,0.0,6.0,22,0.00,,,-99.99,Weather View 32 v60,2013-09-28 22:15:00,
2013-09-28 18:25:00,73.2,32.0,29.99,SSE,148,0.0,5.0,22,0.00,,,-99.99,Weather View 32 v60,2013-09-28 22:25:00,
2013-09-28 18:30:00,73.0,31.8,29.99,SSE,150,0.0,4.0,22,0.00,,,-99.99,Weather View 32 v60,2013-09-28 22:30:00,
2013-09-28 18:35:00,73.0,33.0,29.99,SE,142,0.0,4.0,23,0.00,,,-99.99,Weather View 32 v60,2013-09-28 22:35:00,
2013-09-28 18:40:00,72.9,32.8,29.99,SSE,151,0.0,4.0,23,0.00,,,-99.99,Weather View 32 v60,2013-09-28 22:40:00,
2013-09-28 18:45:00,72.9,32.8,29.99,SSE,158,3.0,4.0,23,0.00,,,-99.99,Weather View 32 v60,2013-09-28 22:45:00,
2013-09-28 18:50:00,72.9,32.8,29.99,SSE,151,3.0,4.0,23,0.00,,,-99.99,Weather View 32 v60,2013-09-28 22:50:00,
2013-09-28 18:55:00,72.7,32.7,29.99,South,184,4.0,4.0,23,0.00,,,-99.99,Weather View 32 v60,2013-09-28 22:55:00,
2013-09-28 19:00:00,72.5,32.5,29.99,SE,143,3.0,4.0,23,0.00,,,-99.99,Weather View 32 v60,2013-09-28 23:00:00,
2013-09-28 19:10:00,72.0,32.1,29.99,SSE,149,0.0,4.0,23,0.00,,,-99.99,Weather View 32 v60,2013-09-28 23:10:00,
2013-09-28 19:15:00,71.8,31.9,29.99,SSE,154,3.0,4.0,23,0.00,,,-99.99,Weather View 32 v60,2013-09-28 23:15:00,
2013-09-28 19:20:00,71.4,31.6,29.99,SSE,162,3.0,4.0,23,0.00,,,-99.99,Weather View 32 v60,2013-09-28 23:20:00,
2013-09-28 19:25:00,71.2,31.4,29.99,SSE,154,3.0,4.0,23,0.00,,,-99.99,Weather View 32 v60,2013-09-28 23:25:00,
2013-09-28 19:30:00,71.1,31.3,29.99,SSE,148,2.0,4.0,23,0.00,,,-99.99,Weather View 32 v60,2013-09-28 23:30:00,
2013-09-28 19:35:00,70.7,31.0,29.99,SSE,150,0.0,4.0,23,0.00,,,-99.99,Weather View 32 v60,2013-09-28 23:35:00,
2013-09-28 19:40:00,70.5,31.9,29.96,SSE,150,0.0,4.0,24,0.00,,,-99.99,Weather View 32 v60,2013-09-28 23:40:00,
2013-09-28 19:45:00,70.2,31.6,29.96,SSE,150,0.0,4.0,24,0.00,,,-99.99,Weather View 32 v60,2013-09-28 23:45:00,
2013-09-28 19:50:00,70.0,31.4,29.96,SSE,150,0.0,4.0,24,0.00,,,-99.99,Weather View 32 v60,2013-09-28 23:50:00,
2013-09-28 20:00:00,69.4,32.0,29.96,SSE,150,0.0,4.0,25,0.00,,,-99.99,Weather View 32 v60,2013-09-29 00:00:00,
2013-09-28 20:05:00,69.1,31.7,29.96,SSE,150,0.0,4.0,25,0.00,,,-99.99,Weather View 32 v60,2013-09-29 00:05:00,
2013-09-28 20:10:00,68.9,31.5,29.96,SSE,150,0.0,4.0,25,0.00,,,-99.99,Weather View 32 v60,2013-09-29 00:10:00,
2013-09-28 20:15:00,68.7,32.4,29.96,SSE,150,0.0,4.0,26,0.00,,,-99.99,Weather View 32 v60,2013-09-29 00:15:00,
2013-09-28 20:20:00,68.4,32.1,29.96,SSE,150,0.0,4.0,26,0.00,,,-99.99,Weather View 32 v60,2013-09-29 00:20:00,
2013-09-28 20:25:00,68.0,31.8,29.96,SSE,150,0.0,4.0,26,0.00,,,-99.99,Weather View 32 v60,2013-09-29 00:25:00,
2013-09-28 20:35:00,67.1,31.9,29.96,SSE,150,0.0,0.0,27,0.00,,,-99.99,Weather View 32 v60,2013-09-29 00:35:00,
2013-09-28 20:40:00,66.7,32.5,29.96,SSE,150,0.0,0.0,28,0.00,,,-99.99,Weather View 32 v60,2013-09-29 00:40:00,
2013-09-28 20:45:00,66.6,32.4,29.96,SSE,150,0.0,0.0,28,0.00,,,-99.99,Weather View 32 v60,2013-09-29 00:45:00,
2013-09-28 20:50:00,66.2,32.9,29.96,SSE,150,0.0,0.0,29,0.00,,,-99.99,Weather View 32 v60,2013-09-29 00:50:00,
2013-09-28 20:55:00,66.0,32.8,29.96,SSE,150,0.0,0.0,29,0.00,,,-99.99,Weather View 32 v60,2013-09-29 00:55:00,
2013-09-28 21:00:00,65.8,33.5,29.96,SSE,150,0.0,0.0,30,0.00,,,-99.99,Weather View 32 v60,2013-09-29 01:00:00,
2013-09-28 21:05:00,65.7,33.3,29.96,SE,136,0.0,0.0,30,0.00,,,-99.99,Weather View 32 v60,2013-09-29 01:05:00,
2013-09-28 21:10:00,65.3,33.8,29.96,SE,136,0.0,0.0,31,0.00,,,-99.99,Weather View 32 v60,2013-09-29 01:10:00,
2013-09-28 21:20:00,64.8,34.1,29.96,SE,135,0.0,0.0,32,0.00,,,-99.99,Weather View 32 v60,2013-09-29 01:20:00,
2013-09-28 21:25:00,64.6,34.0,29.96,SE,135,0.0,0.0,32,0.00,,,-99.99,Weather View 32 v60,2013-09-29 01:25:00,
2013-09-28 21:30:00,64.6,34.8,29.96,SE,140,0.0,0.0,33,0.00,,,-99.99,Weather View 32 v60,2013-09-29 01:30:00,
2013-09-28 21:35:00,64.4,34.6,29.96,SE,140,0.0,0.0,33,0.00,,,-99.99,Weather View 32 v60,2013-09-29 01:35:00,
2013-09-28 21:40:00,64.4,34.6,29.96,SSE,149,0.0,0.0,33,0.00,,,-99.99,Weather View 32 v60,2013-09-29 01:40:00,
2013-09-28 21:45:00,64.2,34.4,29.96,SE,143,0.0,0.0,33,0.00,,,-99.99,Weather View 32 v60,2013-09-29 01:45:00,
2013-09-28 21:55:00,64.2,35.2,29.96,SE,136,3.0,5.0,34,0.00,,,-99.99,Weather View 32 v60,2013-09-29 01:55:00,
2013-09-28 22:05:00,64.4,35.4,29.96,SE,125,3.0,5.0,34,0.00,,,-99.99,Weather View 32 v60,2013-09-29 02:05:00,
2013-09-28 22:10:00,64.4,35.4,29.96,SSE,160,3.0,5.0,34,0.00,,,-99.99,Weather View 32 v60,2013-09-29 02:10:00,
2013-09-28 22:15:00,64.6,35.5,29.96,SSE,150,3.0,5.0,34,0.00,,,-99.99,Weather View 32 v60,2013-09-29 02:15:00,
2013-09-28 22:20:00,64.8,35.7,29.96,SE,130,2.0,5.0,34,0.00,,,-99.99,Weather View 32 v60,2013-09-29 02:20:00,
2013-09-28 22:30:00,64.8,35.7,29.96,SE,137,4.0,5.0,34,0.00,,,-99.99,Weather View 32 v60,2013-09-29 02:30:00,
2013-09-28 22:35:00,64.9,35.8,29.96,SE,138,3.0,5.0,34,0.00,,,-99.99,Weather View 32 v60,2013-09-29 02:35:00,
2013-09-28 22:40:00,64.9,35.8,29.96,SE,145,3.0,5.0,34,0.00,,,-99.99,Weather View 32 v60,2013-09-29 02:40:00,
2013-09-28 22:45:00,64.9,35.8,29.96,SSE,159,3.0,5.0,34,0.00,,,-99.99,Weather View 32 v60,2013-09-29 02:45:00,
2013-09-28 22:55:00,64.8,35.7,29.96,ESE,121,3.0,5.0,34,0.00,,,-99.99,Weather View 32 v60,2013-09-29 02:55:00,
2013-09-28 23:00:00,64.8,35.7,29.96,SE,137,3.0,5.0,34,0.00,,,-99.99,Weather View 32 v60,2013-09-29 03:00:00,
2013-09-28 23:05:00,64.6,35.5,29.96,South,169,3.0,5.0,34,0.00,,,-99.99,Weather View 32 v60,2013-09-29 03:05:00,
2013-09-28 23:10:00,64.6,35.5,29.93,South,171,3.0,5.0,34,0.00,,,-99.99,Weather View 32 v60,2013-09-29 03:10:00,
2013-09-28 23:15:00,64.4,35.4,29.93,SSE,156,3.0,5.0,34,0.00,,,-99.99,Weather View 32 v60,2013-09-29 03:15:00,
2013-09-28 23:25:00,64.2,35.9,29.93,SSE,150,3.0,5.0,35,0.00,,,-99.99,Weather View 32 v60,2013-09-29 03:25:00,
2013-09-28 23:30:00,64.2,35.9,29.93,SE,141,2.0,5.0,35,0.00,,,-99.99,Weather View 32 v60,2013-09-29 03:30:00,
2013-09-28 23:35:00,64.0,35.8,29.93,South,175,3.0,5.0,35,0.00,,,-99.99,Weather View 32 v60,2013-09-29 03:35:00,
2013-09-28 23:45:00,63.9,36.3,29.93,SSE,159,3.0,5.0,36,0.00,,,-99.99,Weather View 32 v60,2013-09-29 03:45:00,
2013-09-28 23:55:00,63.7,36.2,29.93,SSE,161,3.0,5.0,36,0.00,,,-99.99,Weather View 32 v60,2013-09-29 03:55:00,